Location: Gad�tanya
(48.0500°N, 20.8500°E)
Time: 23:01:51
(UTC+00:00)

Cosmos 2237 Rocket - Pass Details

Date: 05 July 2020
Orbit: 834 x 850 km, 71.0° (Epoch: 05 August)

Event Time Altitude Azimuth Distance (km) Brightness Sun altitude
Exits shadow 22:14:54 11° 232° (SW) 2,390 4.3 -19.0°
Maximum altitude 22:20:08 47° 305° (NW) 1,123 3.1 -19.1°
Drops below altitude 10° 22:25:38 10° 19° (NNE) 2,488 5.6 -19.2°
Sets 22:28:13 0° 25° (NNE) 3,427 6.4 -19.2°
